DB0ASF-4 Weather Reports


time (UTC)temp
F
wind
direction
speed
knots
gust
knots
rain 1hr
in
rain 24hr
in
rain mn
in
humidity
%
barometer
mb
20260507092918 53 292 0.0 0.0 0.00 0.02 0.00 80 1019.4
20260507091918 53 337 1.7 0.0 0.00 0.02 0.00 80 1019.2
20260507090918 53 0 0.0 0.0 0.00 0.02 0.00 80 1019.2
20260507085918 52 337 0.0 0.0 0.00 0.02 0.00 80 1019.0
20260507084918 53 90 0.0 0.0 0.00 0.02 0.00 80 1019.0
20260507083918 53 22 2.6 0.0 0.00 0.02 0.00 82 1018.9
20260507082918 52 292 0.0 0.0 0.00 0.02 0.00 82 1018.9
20260507081918 51 270 0.0 0.0 0.00 0.02 0.00 82 1018.7
20260507080918 52 202 0.0 0.0 0.00 0.02 0.00 82 1018.7
20260507075918 52 22 0.0 0.0 0.00 0.02 0.00 83 1018.5
20260507074918 52 337 0.0 0.0 0.00 0.02 0.00 84 1018.4
20260507073918 52 292 0.0 0.0 0.00 0.02 0.00 84 1018.2
20260507072918 52 0 0.0 0.0 0.00 0.02 0.00 85 1018.2
20260507071918 51 247 0.0 0.0 0.00 0.02 0.00 84 1018.2
20260507070918 51 292 0.0 0.0 0.00 0.02 0.00 84 1018.0
20260507065918 51 202 0.0 0.0 0.00 0.02 0.00 85 1018.0
20260507064918 51 180 0.0 0.0 0.00 0.02 0.00 85 1017.9
20260507063918 51 315 0.0 0.0 0.00 0.02 0.00 86 1017.7
20260507062918 51 315 0.0 0.0 0.00 0.02 0.00 86 1017.7
20260507061920 51 180 0.0 0.0 0.00 0.02 0.00 86 1017.5
20260507060918 51 0 0.0 0.0 0.00 0.02 0.00 86 1017.2
20260507055919 50 0 0.0 0.0 0.00 0.02 0.00 86 1017.2
20260507054918 50 337 0.0 0.0 0.00 0.02 0.00 87 1017.2
20260507053918 50 0 0.0 0.0 0.00 0.02 0.00 87 1017.0
20260507052918 50 292 0.0 0.0 0.00 0.02 0.00 87 1016.9
20260507051918 50 337 0.0 0.0 0.00 0.02 0.00 88 1016.7
20260507050918 50 22 0.0 0.0 0.00 0.02 0.00 88 1016.7
20260507045918 49 315 0.0 0.0 0.00 0.02 0.00 88 1016.7
20260507044918 49 337 0.0 0.0 0.00 0.02 0.00 88 1016.5
20260507043918 49 315 0.0 0.0 0.00 0.02 0.00 87 1016.2
20260507042918 49 157 0.0 0.0 0.00 0.02 0.00 87 1016.2
20260507041918 49 67 0.0 0.0 0.00 0.02 0.00 87 1016.0
20260507040918 49 0 0.0 0.0 0.00 0.02 0.00 87 1016.0
20260507035918 49 0 0.0 0.0 0.00 0.02 0.00 87 1016.0
20260507034918 49 0 0.0 0.0 0.00 0.02 0.00 87 1015.9
20260507033918 49 22 0.0 0.0 0.00 0.02 0.00 87 1015.7
20260507032918 49 22 0.0 0.0 0.00 0.02 0.00 87 1015.7
20260507031918 49 247 0.0 0.0 0.00 0.02 0.00 87 1015.7
20260507030918 49 270 0.0 0.0 0.00 0.02 0.00 87 1015.7
20260507025918 49 135 0.0 0.0 0.00 0.02 0.00 87 1015.5
20260507024918 49 270 0.0 0.0 0.00 0.02 0.00 87 1015.7
20260507023918 49 225 0.0 0.0 0.02 0.02 0.00 87 1015.7
20260507022918 49 337 0.0 0.0 0.02 0.02 0.00 87 1015.5
20260507021918 49 337 0.0 0.0 0.02 0.02 0.00 86 1015.4
20260507020918 49 315 0.0 0.0 0.02 0.02 0.00 86 1015.2
20260507015918 49 45 0.0 0.0 0.02 0.02 0.00 85 1015.2
20260507014918 50 315 0.0 0.0 0.00 0.00 0.00 85 1015.2
20260507013918 50 315 0.0 0.0 0.00 0.00 0.00 85 1015.0
20260507012918 50 315 0.0 0.0 0.00 0.00 0.00 85 1015.0
20260507011918 50 315 0.0 0.0 0.00 0.00 0.00 85 1014.7
20260507010918 50 292 0.0 0.0 0.00 0.00 0.00 85 1014.9
20260507005918 50 315 0.0 0.0 0.00 0.00 0.00 85 1015.0
20260507004918 50 292 0.0 0.0 0.00 0.00 0.00 84 1014.9
20260507003918 50 0 0.0 0.0 0.00 0.00 0.00 84 1014.9
20260507002918 51 315 0.0 0.0 0.00 0.00 0.00 83 1014.7
20260507001918 51 315 0.0 0.0 0.00 0.00 0.00 83 1014.7
20260507000918 51 315 0.0 0.0 0.00 0.00 0.00 83 1014.7
20260506235918 51 337 0.0 0.0 0.00 0.02 0.00 83 1014.7
20260506234918 52 337 0.0 0.0 0.00 0.02 0.00 83 1014.5
20260506233918 52 292 0.0 0.0 0.00 0.02 0.00 83 1014.5
20260506232918 52 337 0.0 0.0 0.00 0.02 0.00 83 1014.4
20260506231918 52 202 0.0 0.0 0.00 0.02 0.00 83 1014.5
20260506230918 53 0 0.0 0.0 0.00 0.02 0.00 82 1014.2
20260506225918 53 337 0.0 0.0 0.00 0.06 0.00 82 1014.2
20260506224918 53 270 0.0 0.0 0.00 0.06 0.00 82 1014.2
20260506223918 53 292 0.0 0.0 0.00 0.06 0.00 82 1014.0
20260506222918 53 337 0.0 0.0 0.00 0.06 0.00 82 1014.0
20260506221918 53 292 0.0 0.0 0.00 0.06 0.00 82 1014.0
20260506220918 53 337 0.0 0.0 0.00 0.06 0.00 82 1013.7
20260506215918 53 337 0.0 0.0 0.00 0.08 0.00 82 1013.7
20260506214918 53 292 0.0 0.0 0.00 0.08 0.00 83 1013.7
20260506213918 53 292 0.0 0.0 0.00 0.08 0.00 83 1013.7
20260506212918 53 202 0.0 0.0 0.00 0.08 0.00 83 1013.7
20260506211918 54 0 0.0 0.0 0.00 0.08 0.00 83 1013.5
20260506210918 54 315 0.0 0.0 0.00 0.08 0.00 83 1013.4
20260506205918 54 0 0.0 0.0 0.00 0.08 0.00 84 1013.4
20260506204918 54 112 0.0 0.0 0.00 0.08 0.00 84 1013.4
20260506203918 54 45 0.0 0.0 0.00 0.08 0.00 84 1013.4
20260506202918 53 45 0.0 0.0 0.00 0.08 0.00 83 1013.2
20260506201918 53 0 0.0 0.0 0.00 0.08 0.00 83 1013.2
20260506200918 54 0 0.0 0.0 0.00 0.08 0.00 83 1013.0
20260506195918 54 0 0.0 0.0 0.00 0.08 0.00 83 1013.0
20260506194918 54 270 0.0 0.0 0.00 0.08 0.00 83 1013.0
20260506193918 54 337 0.0 0.0 0.00 0.08 0.00 82 1012.7
20260506192918 54 337 0.0 0.0 0.00 0.08 0.00 82 1012.4
20260506191918 55 90 0.0 0.0 0.00 0.08 0.00 82 1012.4
20260506190918 55 337 0.0 0.0 0.00 0.08 0.00 82 1012.2
20260506185918 55 315 0.0 0.0 0.00 0.08 0.00 81 1012.2
20260506184918 55 337 0.0 0.0 0.00 0.08 0.00 82 1012.2
20260506183918 56 0 0.0 0.0 0.00 0.08 0.00 82 1011.9
20260506182918 56 0 0.0 0.0 0.00 0.08 0.00 81 1011.9
20260506181918 56 292 0.0 0.0 0.00 0.08 0.00 80 1011.7
20260506180918 56 315 0.0 0.0 0.00 0.08 0.00 79 1011.5
20260506175918 57 315 0.0 0.0 0.00 0.08 0.00 78 1011.5
20260506174918 58 337 0.0 0.0 0.00 0.08 0.00 77 1011.2
20260506173918 59 315 0.0 0.0 0.00 0.08 0.00 76 1011.2
20260506172918 59 180 0.0 0.0 0.00 0.08 0.00 75 1011.0
20260506171918 59 0 0.0 0.0 0.00 0.08 0.00 74 1010.9
20260506170918 60 292 0.0 0.0 0.00 0.08 0.00 73 1010.7
20260506165918 60 247 0.0 0.0 0.00 0.08 0.00 71 1010.7
20260506164918 62 270 0.0 0.0 0.00 0.08 0.00 68 1010.7
20260506163918 63 292 0.0 0.0 0.00 0.08 0.00 65 1010.7
20260506162918 64 0 0.0 0.0 0.00 0.08 0.00 65 1010.7
20260506161918 64 22 2.6 0.0 0.00 0.08 0.00 65 1010.7
20260506160918 65 247 0.0 0.0 0.00 0.08 0.00 64 1010.7
20260506155918 65 225 0.0 0.0 0.00 0.10 0.00 63 1010.7
20260506154918 65 45 0.0 0.0 0.00 0.10 0.00 61 1010.5
20260506153918 65 112 0.0 0.0 0.00 0.10 0.00 61 1010.2
20260506152918 65 292 0.0 0.0 0.00 0.10 0.00 60 1010.5
20260506151918 66 90 0.0 0.0 0.00 0.10 0.00 58 1010.2
20260506150918 67 180 0.0 0.0 0.00 0.10 0.00 56 1010.4
20260506145918 69 180 0.0 0.0 0.00 0.12 0.00 55 1010.4
20260506144918 70 202 0.0 0.0 0.00 0.12 0.00 53 1010.0
20260506143918 71 180 0.0 0.0 0.00 0.12 0.00 52 1010.2
20260506142918 71 247 0.0 0.0 0.00 0.12 0.00 53 1010.2
20260506141918 71 180 0.0 0.0 0.00 0.12 0.00 51 1010.2
20260506140918 72 180 0.0 0.0 0.00 0.12 0.00 50 1010.2
20260506135918 74 180 0.0 0.0 0.00 0.16 0.00 48 1010.2
20260506134918 76 292 0.0 0.0 0.00 0.16 0.00 47 1010.2
20260506133918 79 180 0.0 0.0 0.00 0.16 0.00 45 1010.2
20260506132918 77 202 1.7 0.0 0.00 0.16 0.00 46 1010.2
20260506131918 75 180 1.7 0.0 0.00 0.16 0.00 47 1010.2
20260506130918 76 202 0.0 0.0 0.00 0.16 0.00 48 1010.2
20260506125918 77 180 0.0 0.0 0.00 0.20 0.00 48 1010.2
20260506124918 75 22 0.0 0.0 0.00 0.20 0.00 52 1010.2
20260506123918 72 180 0.0 0.0 0.00 0.20 0.00 54 1010.5
20260506122918 71 270 0.0 0.0 0.00 0.20 0.00 56 1010.5
20260506121918 70 202 0.0 0.0 0.00 0.20 0.00 58 1010.2
20260506120918 69 247 0.0 0.0 0.00 0.20 0.00 56 1010.7
20260506115918 71 270 0.0 0.0 0.00 0.20 0.00 56 1010.5
20260506114918 71 180 0.0 0.0 0.00 0.20 0.00 56 1010.5
20260506113918 71 202 0.0 0.0 0.00 0.20 0.00 59 1010.4
20260506112918 70 180 1.7 0.0 0.00 0.20 0.00 59 1010.5
20260506111918 70 202 0.0 0.0 0.00 0.20 0.00 60 1010.5
20260506110918 69 315 0.0 0.0 0.00 0.20 0.00 59 1010.5
20260506105918 70 180 0.0 0.0 0.00 0.20 0.00 60 1010.5
20260506104918 70 202 0.0 0.0 0.00 0.20 0.00 60 1010.5
20260506103918 70 202 0.0 0.0 0.00 0.20 0.00 62 1010.7
20260506102918 68 67 0.0 0.0 0.00 0.20 0.00 65 1010.7
20260506101918 67 180 0.0 0.0 0.00 0.20 0.00 66 1010.7
20260506100918 66 292 0.0 0.0 0.00 0.20 0.00 69 1010.7
20260506095918 65 202 0.0 0.0 0.00 0.20 0.00 71 1010.9
20260506094918 64 270 0.0 0.0 0.00 0.20 0.00 72 1010.7
20260506093918 65 202 0.0 0.0 0.00 0.20 0.00 70 1010.7